FW0486 Weather Reports


time (UTC)temp
F
wind
direction
speed
knots
gust
knots
rain 1hr
in
rain 24hr
in
rain mn
in
humidity
%
barometer
mb
20260505113011 62 224 0.0 0.0 0.00 0.00 0.00 44 1004.7
20260505111516 63 219 0.0 0.0 0.00 0.00 0.00 42 1004.4
20260505101511 63 195 0.0 2.6 0.00 0.00 0.00 40 1004.5
20260505100004 65 215 0.0 4.3 0.00 0.00 0.00 38 1004.3
20260505094503 63 233 0.0 0.0 0.00 0.00 0.00 40 1004.4
20260505093002 63 269 0.0 0.0 0.00 0.00 0.00 40 1004.3
20260505091608 62 148 0.0 0.0 0.00 0.00 0.00 43 1004.2
20260505090058 63 226 0.0 0.0 0.00 0.00 0.00 41 1004.3
20260505084557 62 230 0.0 0.9 0.00 0.00 0.00 43 1004.7
20260505083100 62 135 0.0 0.0 0.00 0.00 0.00 45 1004.7
20260505081555 66 206 0.0 0.0 0.00 0.00 0.00 38 1004.8
20260505080051 65 192 0.0 0.0 0.00 0.00 0.00 40 1005.0
20260505074549 65 285 0.0 0.0 0.00 0.00 0.00 40 1005.1
20260505073054 64 213 0.0 0.0 0.00 0.00 0.00 42 1005.0
20260505071556 65 206 0.0 0.0 0.00 0.00 0.00 41 1005.1
20260505070045 65 199 0.0 0.9 0.00 0.00 0.00 41 1005.1
20260505064542 66 236 0.0 0.0 0.00 0.00 0.00 40 1004.8
20260505063038 66 27 0.0 0.0 0.00 0.00 0.00 39 1004.6
20260505061535 66 260 0.0 0.0 0.00 0.00 0.00 39 1004.8
20260505060043 68 269 0.0 0.0 0.00 0.00 0.00 37 1005.1
20260505054533 69 278 0.0 0.0 0.00 0.00 0.00 36 1005.5
20260505053030 68 291 0.0 0.0 0.00 0.00 0.00 37 1005.4
20260505051529 69 308 0.0 0.0 0.00 0.00 0.00 37 1005.6
20260505041527 71 304 0.9 13.9 0.00 0.00 0.00 30 1005.8
20260505040026 71 322 0.0 0.0 0.00 0.00 0.00 27 1006.1
20260505034526 72 304 0.0 0.0 0.00 0.00 0.00 26 1006.1
20260505033025 73 294 0.0 5.2 0.00 0.00 0.00 26 1005.5
20260505031524 73 307 3.5 10.4 0.00 0.00 0.00 25 1005.1
20260505030024 74 304 0.0 10.4 0.00 0.00 0.00 24 1004.9
20260505024523 75 283 0.0 1.7 0.00 0.00 0.00 21 1004.6
20260505023025 75 233 0.0 0.9 0.00 0.00 0.00 20 1004.3
20260505021528 76 224 0.0 4.3 0.00 0.00 0.00 20 1004.0
20260505020122 76 236 0.0 2.6 0.00 0.00 0.00 20 1003.9
20260505014521 77 246 0.0 3.5 0.00 0.00 0.00 19 1003.8
20260505013021 78 295 0.0 7.8 0.00 0.00 0.00 18 1003.5
20260505011524 78 300 0.9 11.3 0.00 0.00 0.00 18 1003.3
20260505010019 79 221 0.9 6.1 0.00 0.00 0.00 18 1003.2
20260505004523 79 255 0.0 2.6 0.00 0.00 0.00 18 1002.9
20260505003017 80 282 0.0 4.3 0.00 0.00 0.00 18 1003.1
20260505001517 80 295 0.0 7.0 0.00 0.00 0.00 17 1003.5
20260505000023 81 267 0.0 8.7 0.00 0.00 0.00 17 1003.5
20260504234516 81 224 0.0 12.2 0.00 0.00 0.00 17 1003.5
20260504233015 82 223 0.0 7.8 0.00 0.00 0.00 16 1003.3
20260504231514 83 268 3.5 14.8 0.00 0.00 0.00 16 1003.4
20260504230014 83 248 4.3 19.1 0.00 0.00 0.00 16 1003.2
20260504224518 83 229 1.7 15.6 0.00 0.00 0.00 15 1003.3
20260504223012 84 210 4.3 15.6 0.00 0.00 0.00 15 1003.3
20260504221511 83 227 1.7 22.6 0.00 0.00 0.00 15 1003.7
20260504220008 84 245 0.9 18.2 0.00 0.00 0.00 15 1003.8
20260504214508 83 225 6.1 24.3 0.00 0.00 0.00 14 1004.5
20260504213004 84 191 8.7 18.2 0.00 0.00 0.00 14 1004.5
20260504211600 83 207 4.3 19.1 0.00 0.00 0.00 14 1004.8
20260504210101 81 198 0.9 24.3 0.00 0.00 0.00 16 1005.0
20260504204555 81 190 10.4 20.9 0.00 0.00 0.00 16 1005.3
20260504203103 80 209 7.0 13.0 0.00 0.00 0.00 15 1005.5
20260504201611 80 223 1.7 17.4 0.00 0.00 0.00 15 1005.6
20260504200052 80 215 13.0 20.9 0.00 0.00 0.00 16 1005.7
20260504194553 80 203 4.3 13.9 0.00 0.00 0.00 16 1005.5
20260504193048 80 221 0.0 20.0 0.00 0.00 0.00 17 1005.7
20260504191555 80 208 7.0 17.4 0.00 0.00 0.00 17 1006.0
20260504190047 81 243 5.2 14.8 0.00 0.00 0.00 19 1006.3
20260504184553 81 188 7.8 16.5 0.00 0.00 0.00 20 1006.3
20260504183039 80 214 3.5 13.9 0.00 0.00 0.00 20 1006.4
20260504181536 78 260 0.0 9.6 0.00 0.00 0.00 22 1006.9
20260504180031 78 210 2.6 13.9 0.00 0.00 0.00 22 1007.3
20260504174528 77 201 0.0 11.3 0.00 0.00 0.00 24 1007.6
20260504173028 76 149 0.0 4.3 0.00 0.00 0.00 24 1007.9
20260504171524 76 200 0.0 11.3 0.00 0.00 0.00 25 1008.3
20260504140111 59 113 0.0 0.0 0.00 0.00 0.00 59 1008.5
20260504120110 61 221 0.0 0.0 0.00 0.00 0.00 46 1008.2